Погода в Каване

Ирландия     53°59′20″N   7°21′45″W
темп.,
°C
ветер,
м/с
пор.,
м/с
влажн.,
%
обл.,
%
осадки,
мм/ч
давл.,
гПа
погр.,
м
12 августа, пт
пт1201:00+13ссв34950 0.0 102371
04:00+12св11940 0.0 102217
07:00+13ссв22910 0.0 102228
10:00+19ссв22700 0.0 1021282
13:00+24всв22564 0.0 1020791
16:00+25в22510 0.0 10191182
19:00+23вюв23695 0.0 1019143
22:00+17в11840 0.0 101911
13 августа, сб
сб1301:00+15ссв22860 0.0 101915
04:00+13ссв22840 0.0 101823
07:00+13ссв247924 0.0 101761
10:00+19св346451 0.0 1017294
13:00+24св33587 0.0 1016669
16:00+26в22555 0.0 10151056
19:00+22вюв247070 0.0 1014218
22:00+17всв117772 0.0 101411
14 августа, вс
вс1401:00+15с22845 0.0 101311
04:00+14ссв22903 0.0 101214
07:00+15с2286100 0.0 101123
10:00+21ссв236895 0.0 1010329
13:00+24ссв225759 0.0 1009804
16:00+25св225499 0.0 10071125
19:00+19ссз5886100 1.7 1006239
22:00+16св3696100 6.8 1007198
15 августа, пн
пн1501:00+15вюв1298100 8.4 100685
04:00+14с1198100 0.0 100421
07:00+14сз1397100 0.0 1004125
10:00+17ссз238858 0.0 1005501
13:00+19с337783 0.5 1005872
16:00+19с3484100 2.6 1005565
19:00+16с3792100 5.4 1006493
22:00+14с499477 0.6 1007436
16 августа, вт
вт1601:00+13ссз41096100 0.6 1009505
04:00+13ссз51093100 0.1 1009641
07:00+13с51088100 0.1 1010816
10:00+14с598094 0.0 1011823
13:00+17с676496 0.0 10121225
16:00+18ссв565930 0.0 10121333
19:00+17с47672 0.0 10131088
22:00+11с38920 0.0 1015253